Regional Weather Roundup
Issued by NWS State College, PA

Home | Current Version | Previous Version | Text Only | Print | Product List | Glossary On
Versions: 1 2 3 4 5 6 7 8 9 10 11 12 13 14 15 16 17 18 19 20 21 22 23 24 25 26 27 28 29 30 31 32 33 34 35 36 37 38 39 40 41 42 43 44 45 46 47 48 49 50
000
ASUS41 KCTP 220810
RWRCTP

REGIONAL WEATHER ROUNDUP
NATIONAL WEATHER SERVICE STATE COLLEGE PA
400 AM EDT FRI AUG 22 2014

Note: "fair" indicates few or no clouds below 12,000 feet with no
significant weather and/or obstructions to visibility.

* = STATION THAT DOES NOT REPORT PRECIPITATION /E.G. RAIN...SNOW...ETC/
    THUNDER OR FOG.

PAZ002>004-007>009-013>016-020>023-029>032-220900-
WESTERN PENNSYLVANIA

CITY           SKY/WX    TMP DP  RH WIND       PRES   REMARKS
ERIE           CLOUDY    72  68  87 SW3       29.96F
MEADVILLE      CLOUDY    68  66  93 CALM      29.99F
FRANKLIN*      CLOUDY    66  64  94 CALM      30.01F
NEW CASTLE     NOT AVBL
BEAVER COUNTY  NOT AVBL
BUTLER*        CLOUDY    68  66  94 CALM      30.02F
PITTSBURGH INT CLOUDY    68  67  96 SE5       29.99F FOG
PITTSBURGH     CLOUDY    68  66  94 SE3       30.00S FOG
INDIANA*       CLOUDY    70  68  94 W3        30.06S
LATROBE        CLOUDY    70  70 100 SW5       30.02F
WASHINGTON CO* MOCLDY    66  64  94 S3        30.01F VSB 1
$$

PAZ004>006-010>012-017>019-024>028-033>037-041-042-045-046-049>053-220900-
CENTRAL PENNSYLVANIA

CITY           SKY/WX    TMP DP  RH WIND       PRES   REMARKS
BRADFORD       CLOUDY    66  65  96 CALM      30.04S FOG
DUBOIS         CLOUDY    67  67 100 W6        30.02F
CLEARFIELD     CLOUDY    67  67 100 SW3       30.02F FOG
JOHNSTOWN      CLOUDY    66  64  93 W3        30.05F
ALTOONA        MOCLDY    66  64  93 CALM      30.02F
STATE COLLEGE  MOCLDY    65  65  97 CALM      30.01S FOG
WILLIAMSPORT   MOCLDY    66  64  93 N3        29.98S
SELINSGROVE    CLOUDY    68  67  96 CALM      29.99S FOG
FT INDIANTOWN  MOCLDY    66  66 100 NE2       29.99F
CAPITAL CITY   PTCLDY    64  63  96 CALM      29.98S FOG
HARRISBURG     PTCLDY    68  65  90 CALM      29.97F FOG
YORK           FOG       62  61  96 CALM      29.98S VSB 1/4
$$

PAZ038>040-043-044-047-048-054-055-060>062-067>071-220900-
EASTERN PENNSYLVANIA

CITY           SKY/WX    TMP DP  RH WIND       PRES   REMARKS
SCRANTON       CLOUDY    69  65  86 CALM      30.00S
MOUNT POCONO   PTCLDY    61  59  93 NE3       30.04S
ALLENTOWN      PTCLDY    67  64  90 CALM      30.00F
QUAKERTOWN*    PTSUNNY   66  64  94 CALM      30.01S
READING        CLOUDY    69  65  86 CALM      29.99R
LANCASTER      CLOUDY    70  68  93 CALM      29.98S FOG
COATESVILLE    CLOUDY    68  68 100 CALM      30.01R FOG
POTTSTOWN      CLOUDY    67  65  93 E3        30.01F
BLUE BELL      CLOUDY    68  68 100 CALM      29.99S
DOYLESTOWN     LGT RAIN  66  66 100 CALM      29.99F
WILLOW GROVE   NOT AVBL
NORTH PHILA    LGT RAIN  69  65  86 E5        30.01R
PHILADELPHIA   CLOUDY    70  66  87 E7        29.99S
$$


USA.gov is the U.S. government's official web portal to all federal, state and local government web resources and services.